User: anonymous   Login
Location: G�kdere
(37.0328°N, 30.9000°E)
Time: 14:08:44
(UTC+00:00)
Language:

Cosmos 968 Rocket - Orbit

View from above orbital plane
View from above orbital plane
View from above satellite
View from above satellite

Ground track
Ground track

The orbit data is extracted from the following two-line orbital elements,

1 10521U 77119B   21125.83677563  .00000076  00000-0  32126-4 0  9991
2 10521  74.0263 161.2149 0021193 191.4157 168.6520 14.40821877276286
Epoch (UTC): 05 May 2021 20:04:57
Eccentricity: 0.0021193
inclination: 74.0263°
perigee height: 740 km
apogee height: 771 km
right ascension of ascending node: 161.2149°
argument of perigee: 191.4157°
revolutions per day: 14.40821877
mean anomaly at epoch: 168.6520°
orbit number at epoch: 27628

The dashed part of the orbit path shows where the satellite is in the earth's shadow,  

DLR